When you browse on this site, cookies collect data to enhance your experience and personalize the content and advertising you see.
Visit our Privacy Policy to learn more. By continuing to use the site, you agree to this use of cookies and data.
  • Em Portugal
  • Lista de países
  • Para 7 dias
  • Temperatura da água
  • Mapa do tempo
  • Widgets de tempo
  • user-avatar
    Iniciar Sessão

    Previsão horária em Hrazdan

    Hoje, 24 Fevereiro, Segunda-feira

    Tempo Temperatura Precipitação Vento Pressão Humidade
    00:00 -3°C° 0.1 mm 2 m/s 611 mmHg 92%
    01:00 -3°C° 0.1 mm 2 m/s 611 mmHg 92%
    02:00 -3°C° 0.1 mm 2 m/s 611 mmHg 93%
    03:00 -3°C° 0 mm 2 m/s 610 mmHg 93%
    04:00 -3°C° 0.1 mm 2 m/s 610 mmHg 93%
    05:00 -3°C° 0.1 mm 2 m/s 610 mmHg 92%
    06:00 -4°C° 0.1 mm 3 m/s 610 mmHg 92%
    07:00 -2°C° 0.1 mm 3 m/s 610 mmHg 92%
    08:00 -2°C° 0.1 mm 3 m/s 610 mmHg 91%
    09:00 -1°C° 0 mm 3 m/s 610 mmHg 90%
    10:00 -1°C° 0 mm 3 m/s 610 mmHg 90%
    11:00 0°C° 0 mm 3 m/s 609 mmHg 89%
    12:00 -1°C° 0 mm 4 m/s 609 mmHg 89%
    13:00 -1°C° 0 mm 4 m/s 608 mmHg 88%
    14:00 -1°C° 0 mm 4 m/s 607 mmHg 87%
    15:00 -1°C° 0 mm 4 m/s 607 mmHg 86%
    16:00 -1°C° 0.1 mm 4 m/s 606 mmHg 88%
    17:00 -1°C° 0.1 mm 3 m/s 606 mmHg 89%
    18:00 -2°C° 0.1 mm 3 m/s 606 mmHg 91%
    19:00 -2°C° 0.1 mm 3 m/s 606 mmHg 90%
    20:00 -3°C° 0.1 mm 4 m/s 606 mmHg 90%
    21:00 -3°C° 0.1 mm 4 m/s 606 mmHg 89%
    22:00 -3°C° 0 mm 4 m/s 606 mmHg 88%
    23:00 -3°C° 0 mm 4 m/s 605 mmHg 87%

    Amanhã, 25 Fevereiro, Terça-feira

    Tempo Temperatura Precipitação Vento Pressão Humidade
    00:00 -3°C° 0 mm 4 m/s 605 mmHg 87%
    01:00 -4°C° 0 mm 5 m/s 605 mmHg 86%
    02:00 -4°C° 0 mm 5 m/s 604 mmHg 86%
    03:00 -4°C° 0 mm 5 m/s 604 mmHg 86%
    04:00 -4°C° 0.3 mm 4 m/s 603 mmHg 88%
    05:00 -4°C° 0.3 mm 3 m/s 603 mmHg 91%
    06:00 -4°C° 0.3 mm 3 m/s 603 mmHg 93%
    07:00 -4°C° 0.7 mm 3 m/s 603 mmHg 93%
    08:00 -2°C° 0.7 mm 2 m/s 604 mmHg 93%
    09:00 -2°C° 0.7 mm 2 m/s 604 mmHg 93%
    10:00 -2°C° 1.9 mm 3 m/s 604 mmHg 93%
    11:00 -4°C° 1.9 mm 3 m/s 603 mmHg 93%
    12:00 -5°C° 1.9 mm 3 m/s 603 mmHg 94%
    13:00 -5°C° 0.8 mm 3 m/s 603 mmHg 90%
    14:00 -5°C° 0.8 mm 3 m/s 603 mmHg 87%
    15:00 -6°C° 0.8 mm 3 m/s 604 mmHg 83%
    16:00 -6°C° 0.1 mm 2 m/s 604 mmHg 81%
    17:00 -7°C° 0.1 mm 2 m/s 604 mmHg 79%
    18:00 -9°C° 0.1 mm 2 m/s 604 mmHg 77%
    19:00 -10°C° 0 mm 2 m/s 605 mmHg 73%
    20:00 -12°C° 0 mm 2 m/s 605 mmHg 68%
    21:00 -12°C° 0 mm 2 m/s 606 mmHg 63%
    22:00 -13°C° 0 mm 2 m/s 606 mmHg 62%
    23:00 -13°C° 0 mm 2 m/s 606 mmHg 61%

    Depois de amanhã, 26 Fevereiro, Quarta-feira

    Tempo Temperatura Precipitação Vento Pressão Humidade
    00:00 -13°C° 0 mm 2 m/s 606 mmHg 60%
    01:00 -11°C° 0 mm 1 m/s 606 mmHg 58%
    02:00 -11°C° 0 mm 1 m/s 606 mmHg 55%
    03:00 -11°C° 0 mm 1 m/s 606 mmHg 52%
    04:00 -11°C° 0 mm 1 m/s 606 mmHg 50%
    05:00 -11°C° 0 mm 1 m/s 606 mmHg 47%
    06:00 -11°C° 0 mm 1 m/s 606 mmHg 45%
    07:00 -10°C° 0 mm 1 m/s 607 mmHg 49%
    08:00 -8°C° 0 mm 1 m/s 608 mmHg 54%
    09:00 -6°C° 0 mm 0 m/s 609 mmHg 58%
    10:00 -5°C° 0 mm 0 m/s 610 mmHg 58%
    11:00 -3°C° 0 mm 1 m/s 610 mmHg 59%
    12:00 -2°C° 0 mm 1 m/s 610 mmHg 60%
    13:00 -2°C° 0 mm 1 m/s 610 mmHg 62%
    14:00 -1°C° 0 mm 1 m/s 610 mmHg 64%
    15:00 -1°C° 0 mm 1 m/s 610 mmHg 66%
    16:00 -3°C° 0 mm 1 m/s 610 mmHg 65%
    17:00 -4°C° 0 mm 1 m/s 609 mmHg 65%
    18:00 -7°C° 0 mm 1 m/s 609 mmHg 65%
    19:00 -7°C° 0 mm 1 m/s 609 mmHg 61%
    20:00 -8°C° 0 mm 2 m/s 609 mmHg 57%
    21:00 -8°C° 0 mm 2 m/s 610 mmHg 52%
    22:00 -8°C° 0 mm 2 m/s 610 mmHg 53%
    23:00 -9°C° 0 mm 2 m/s 610 mmHg 54%

    27 Fevereiro, Quinta-feira

    Tempo Temperatura Precipitação Vento Pressão Humidade
    00:00 -9°C° 0 mm 2 m/s 610 mmHg 55%
    01:00 -9°C° 0 mm 2 m/s 610 mmHg 55%
    02:00 -9°C° 0 mm 2 m/s 610 mmHg 56%
    03:00 -10°C° 0 mm 3 m/s 610 mmHg 57%
    04:00 -8°C° 0 mm 2 m/s 610 mmHg 56%
    05:00 -8°C° 0 mm 2 m/s 610 mmHg 55%
    06:00 -8°C° 0 mm 2 m/s 610 mmHg 54%
    07:00 -6°C° 0 mm 2 m/s 611 mmHg 57%
    08:00 -5°C° 0 mm 2 m/s 611 mmHg 61%
    09:00 -4°C° 0 mm 2 m/s 612 mmHg 64%
    10:00 -2°C° 0 mm 2 m/s 612 mmHg 68%
    11:00 -1°C° 0 mm 2 m/s 612 mmHg 71%
    12:00 +1°C° 0 mm 2 m/s 612 mmHg 74%
    13:00 +1°C° 0 mm 2 m/s 612 mmHg 73%
    14:00 +1°C° 0 mm 2 m/s 611 mmHg 71%
    15:00 +2°C° 0 mm 2 m/s 611 mmHg 70%
    16:00 -1°C° 0 mm 2 m/s 610 mmHg 64%
    17:00 -2°C° 0 mm 2 m/s 610 mmHg 58%
    18:00 -3°C° 0 mm 2 m/s 609 mmHg 52%
    19:00 -3°C° 0 mm 2 m/s 609 mmHg 51%
    20:00 -3°C° 0 mm 2 m/s 609 mmHg 50%
    21:00 -3°C° 0 mm 2 m/s 609 mmHg 48%
    22:00 -5°C° 0 mm 3 m/s 609 mmHg 49%
    23:00 -5°C° 0 mm 3 m/s 609 mmHg 49%

    28 Fevereiro, Sexta-feira

    Tempo Temperatura Precipitação Vento Pressão Humidade
    00:00 -5°C° 0 mm 3 m/s 608 mmHg 49%
    01:00 -5°C° 0 mm 3 m/s 608 mmHg 50%
    02:00 -5°C° 0 mm 3 m/s 607 mmHg 50%
    03:00 -5°C° 0 mm 3 m/s 607 mmHg 51%
    04:00 -5°C° 0 mm 3 m/s 607 mmHg 52%
    05:00 -6°C° 0 mm 3 m/s 606 mmHg 52%
    06:00 -6°C° 0 mm 3 m/s 606 mmHg 53%
    07:00 -5°C° 0 mm 3 m/s 606 mmHg 56%
    08:00 -2°C° 0 mm 3 m/s 607 mmHg 59%
    09:00 -1°C° 0 mm 3 m/s 607 mmHg 62%
    10:00 0°C° 0 mm 3 m/s 607 mmHg 64%
    11:00 0°C° 0 mm 3 m/s 607 mmHg 65%
    12:00 +1°C° 0 mm 3 m/s 607 mmHg 66%
    13:00 +1°C° 0 mm 3 m/s 606 mmHg 65%
    14:00 +1°C° 0 mm 3 m/s 606 mmHg 64%
    15:00 0°C° 0 mm 4 m/s 606 mmHg 64%
    16:00 0°C° 0.1 mm 3 m/s 606 mmHg 69%
    17:00 -1°C° 0.1 mm 3 m/s 605 mmHg 74%
    18:00 -2°C° 0.1 mm 3 m/s 605 mmHg 79%
    19:00 -2°C° 0 mm 2 m/s 605 mmHg 76%
    20:00 -3°C° 0 mm 2 m/s 605 mmHg 73%
    21:00 -3°C° 0 mm 2 m/s 605 mmHg 70%
    22:00 -3°C° 0 mm 2 m/s 605 mmHg 71%
    23:00 -4°C° 0 mm 2 m/s 605 mmHg 71%

    29 Fevereiro, Sábado

    Tempo Temperatura Precipitação Vento Pressão Humidade
    00:00 -4°C° 0 mm 2 m/s 605 mmHg 72%
    01:00 -4°C° 0 mm 2 m/s 605 mmHg 72%
    02:00 -4°C° 0 mm 2 m/s 605 mmHg 73%
    03:00 -4°C° 0 mm 2 m/s 605 mmHg 73%
    04:00 -4°C° 0 mm 2 m/s 605 mmHg 75%
    05:00 -4°C° 0 mm 2 m/s 605 mmHg 78%
    06:00 -2°C° 0 mm 1 m/s 605 mmHg 80%
    07:00 -1°C° 0.1 mm 1 m/s 605 mmHg 81%
    08:00 -2°C° 0.1 mm 2 m/s 606 mmHg 82%
    09:00 -1°C° 0.1 mm 2 m/s 606 mmHg 83%
    10:00 +1°C° 0 mm 2 m/s 606 mmHg 83%
    11:00 +1°C° 0 mm 2 m/s 606 mmHg 83%
    12:00 +2°C° 0 mm 2 m/s 605 mmHg 84%
    13:00 +2°C° 0.1 mm 2 m/s 605 mmHg 85%
    14:00 +2°C° 0.1 mm 2 m/s 604 mmHg 87%
    15:00 +2°C° 0.1 mm 2 m/s 604 mmHg 89%
    16:00 +1°C° 1.4 mm 2 m/s 604 mmHg 91%
    17:00 -1°C° 1.4 mm 2 m/s 604 mmHg 94%
    18:00 -1°C° 1.4 mm 2 m/s 604 mmHg 96%
    19:00 -2°C° 1.9 mm 2 m/s 604 mmHg 96%
    20:00 -2°C° 1.9 mm 2 m/s 605 mmHg 96%
    21:00 -4°C° 1.9 mm 3 m/s 605 mmHg 96%
    22:00 -4°C° 0.6 mm 2 m/s 606 mmHg 94%
    23:00 -5°C° 0.6 mm 2 m/s 606 mmHg 92%
    Mostrar mais